FW6390 Fort Washington MD US current weather conditions

sailwx.info

Wind from 334 at 1 knots gusting 6

Air temperature 6.7° C
Dewpoint -2.2° C

Last reported at 2020-Jan-28 23:01 UTC.
Time now 2020-Jan-29 00:01 UTC

Location: N 38°46' W 076°60'.
View on Google Maps.

See reports from other nearby stations

  
Tides and Currents Weather Stations Pressure Air Temp Water Temp Dewpoint Dewpoint Depression Visibility Wind Speed Wind Dir Waves Ship Positions
date/time (UTC)wind fromknots sea level pressurealtimeterstation pressurevisibilityair tempwater tempwave heightnotes
2020-Jan-28 23:01 334 1 gusting 6 6.7
2020-Jan-28 22:46 257 1 gusting 5 6.7
2020-Jan-28 22:32 293 1 gusting 6 6.7
2020-Jan-28 22:16 321 1 gusting 9 6.7
2020-Jan-28 22:01 047 1 gusting 7 7.2
2020-Jan-28 21:46 008 1 gusting 6 7.2
2020-Jan-28 21:31 259 1 gusting 5 7.2
2020-Jan-28 21:17 354 1 gusting 5 7.2
2020-Jan-28 21:01 330 1 gusting 6 7.2
2020-Jan-28 20:46 7.2
2020-Jan-28 20:30 304 1 gusting 4 7.2
2020-Jan-28 20:16 016 0 gusting 4 7.8
2020-Jan-28 20:01 334 2 gusting 7 7.2
2020-Jan-28 19:46 309 2 gusting 6 7.2
2020-Jan-28 19:31 335 2 gusting 7 7.2
2020-Jan-28 19:16 268 1 gusting 11 7.8
2020-Jan-28 19:01 030 2 gusting 6 7.2
2020-Jan-28 18:46 274 2 gusting 10 7.2
2020-Jan-28 18:32 309 2 gusting 8 7.2
2020-Jan-28 18:16 336 1 gusting 8 6.7
2020-Jan-28 18:01 295 1 gusting 6 6.7
2020-Jan-28 17:46 272 2 gusting 10 6.7
2020-Jan-28 17:31 295 2 gusting 6 6.7
2020-Jan-28 17:16 005 2 gusting 9 7.2
2020-Jan-28 17:02 314 2 gusting 7 7.2
2020-Jan-28 16:45 011 2 gusting 6 7.8
2020-Jan-28 16:30 056 0 gusting 10 6.7
2020-Jan-28 16:16 346 1 gusting 6 6.7
2020-Jan-28 16:02 010 1 gusting 6 7.2
2020-Jan-28 15:47 281 2 gusting 8 6.7
2020-Jan-28 15:31 230 2 gusting 6 6.7
2020-Jan-28 15:16 301 0 gusting 4 6.7
2020-Jan-28 15:01 329 1 gusting 6 6.7
2020-Jan-28 14:47 342 3 gusting 8 6.1
2020-Jan-28 14:31 338 0 gusting 4 5.6
2020-Jan-28 14:16 5.6
2020-Jan-28 14:02 315 5.6
2020-Jan-28 13:46 322 1 gusting 4 5.0
2020-Jan-28 13:32 4.4
2020-Jan-28 13:15 307 3.9
2020-Jan-28 13:01 346 4.4
2020-Jan-28 12:47 4.4
2020-Jan-28 12:31 051 1 gusting 5 4.4
2020-Jan-28 12:16 302 4.4
2020-Jan-28 12:01 263 0 gusting 5 4.4
2020-Jan-28 11:46 346 1 gusting 4 4.4
2020-Jan-28 11:30 274 0 gusting 5 4.4
2020-Jan-28 11:15 354 0 gusting 5 4.4
2020-Jan-28 11:01 309 4.4
2020-Jan-28 10:45 007 4.4
2020-Jan-28 10:31 288 1 gusting 5 4.4
2020-Jan-28 10:16 018 4.4
2020-Jan-28 10:01 335 4.4
2020-Jan-28 09:46 248 0 gusting 3 4.4
2020-Jan-28 09:31 356 0 gusting 5 4.4
2020-Jan-28 09:16 018 0 gusting 3 4.4
2020-Jan-28 09:02 333 0 gusting 5 4.4
2020-Jan-28 08:46 283 0 gusting 4 4.4
2020-Jan-28 08:31 4.4
2020-Jan-28 08:16 320 1 gusting 4 4.4
2020-Jan-28 08:01 004 0 gusting 3 4.4
2020-Jan-28 07:46 304 0 gusting 2 4.4
2020-Jan-28 07:31 309 0 gusting 6 4.4
2020-Jan-28 07:16 4.4
2020-Jan-28 07:01 302 1 gusting 5 4.4
2020-Jan-28 06:46 004 0 gusting 4 5.0
2020-Jan-28 06:31 326 0 gusting 3 5.0
2020-Jan-28 06:16 017 5.0
2020-Jan-28 06:01 296 0 gusting 7 5.0
2020-Jan-28 05:46 338 0 gusting 5 5.0
2020-Jan-28 05:31 019 1 gusting 4 5.0
2020-Jan-28 05:17 307 0 gusting 7 5.0
2020-Jan-28 05:02 5.0
2020-Jan-28 04:45 315 1 gusting 6 5.0
2020-Jan-28 04:31 049 1 gusting 8 5.0
2020-Jan-28 04:16 042 0 gusting 4 5.0
2020-Jan-28 04:02 307 5.0
2020-Jan-28 03:45 305 5.0
2020-Jan-28 03:31 300 5.0
2020-Jan-28 03:16 273 0 gusting 3 5.0
2020-Jan-28 03:01 323 0 gusting 4 5.0
2020-Jan-28 02:46 309 4.4
2020-Jan-28 02:31 323 4.4
2020-Jan-28 02:17 4.4
2020-Jan-28 02:01 4.4
2020-Jan-28 01:45 311 5.0
2020-Jan-28 01:31 5.0
2020-Jan-28 01:16 309 5.6
2020-Jan-28 01:00 342 0 gusting 3 6.1
2020-Jan-28 00:46 310 6.1
2020-Jan-28 00:30 266 0 gusting 3 6.1
2020-Jan-28 00:15 276 0 gusting 6 6.7
2020-Jan-28 00:00 301 0 gusting 4 6.7
2020-Jan-27 23:45 321 0 gusting 6 6.7
2020-Jan-27 23:32 326 0 gusting 7 6.7
2020-Jan-27 23:16 338 0 gusting 6 6.7
2020-Jan-27 23:01 7.2
2020-Jan-27 22:46 333 2 gusting 6 7.2
2020-Jan-27 22:30 307 7.2
2020-Jan-27 22:15 338 7.2
2020-Jan-27 22:01 345 1 gusting 6 7.8
2020-Jan-27 21:46 318 0 gusting 4 7.8
2020-Jan-27 21:31 267 0 gusting 5 7.8
2020-Jan-27 21:16 304 1 gusting 5 8.3
2020-Jan-27 21:00 333 1 gusting 8 8.3
2020-Jan-27 20:46 314 1 gusting 6 8.3
2020-Jan-27 20:31 262 8.3
2020-Jan-27 20:16 8.9
2020-Jan-27 20:01 8.9
2020-Jan-27 19:45 352 0 gusting 1 8.9
2020-Jan-27 19:30 8.9
2020-Jan-27 19:15 8.9
2020-Jan-27 19:01 282 0 gusting 4 8.9
2020-Jan-27 18:46 278 0 gusting 2 9.4
2020-Jan-27 18:31 280 8.9
2020-Jan-27 18:17 328 0 gusting 3 8.9
2020-Jan-27 18:02 255 0 gusting 2 8.9
2020-Jan-27 17:46 295 0 gusting 2 9.4
2020-Jan-27 17:31 330 0 gusting 4 9.4
2020-Jan-27 17:16 247 1 gusting 6 9.4
2020-Jan-27 17:00 032 1 gusting 3 10.0
2020-Jan-27 16:46 269 1 gusting 3 8.9
2020-Jan-27 16:31 260 0 gusting 2 8.9
2020-Jan-27 16:16 281 7.8
2020-Jan-27 16:01 281 7.2
2020-Jan-27 15:46 302 7.2
2020-Jan-27 15:30 220 6.7
2020-Jan-27 15:16 148 5.6
2020-Jan-27 15:01 5.0
2020-Jan-27 14:46 5.0
2020-Jan-27 14:31 149 4.4
2020-Jan-27 14:16 232 3.3
2020-Jan-27 14:01 139 2.8
2020-Jan-27 13:46 2.2
2020-Jan-27 13:31 1.7
2020-Jan-27 13:16 1.1
2020-Jan-27 13:01 0.6
2020-Jan-27 12:45 -0.0
2020-Jan-27 12:31 -0.0
2020-Jan-27 12:17 -0.0
2020-Jan-27 12:01 -0.0
2020-Jan-27 11:45 -0.0
2020-Jan-27 11:31 -0.0
2020-Jan-27 11:16 -0.6
2020-Jan-27 11:00 -0.6
2020-Jan-27 10:46 -1.1
2020-Jan-27 10:31 -1.1
2020-Jan-27 10:17 -1.7
2020-Jan-27 10:00 -1.7
2020-Jan-27 09:46 -1.7
2020-Jan-27 09:31 -1.1
2020-Jan-27 09:17 -1.1
2020-Jan-27 09:02 -0.6
2020-Jan-27 08:46 -0.0
2020-Jan-27 08:31 1.1
2020-Jan-27 08:16 1.1
2020-Jan-27 08:00 1.1
2020-Jan-27 07:46 1.1
2020-Jan-27 07:31 1.1
2020-Jan-27 07:17 1.1
2020-Jan-27 07:00 0.6
2020-Jan-27 06:46 0.6
2020-Jan-27 06:32 -0.0
2020-Jan-27 06:16 -0.6
2020-Jan-27 06:00 -0.6
2020-Jan-27 05:45 -0.6
2020-Jan-27 05:31 -0.6
2020-Jan-27 05:15 -0.0
2020-Jan-27 05:01 0.6
2020-Jan-27 04:46 0.6
2020-Jan-27 04:31 1.7
2020-Jan-27 04:16 2.2
2020-Jan-27 04:02 3.3
2020-Jan-27 03:45 3.9
2020-Jan-27 03:30 307 5.0
2020-Jan-27 03:16 301 5.0
2020-Jan-27 03:01 004 0 gusting 4 5.0
2020-Jan-27 02:46 274 5.0
2020-Jan-27 02:30 262 1 gusting 3 5.6
2020-Jan-27 02:16 012 0 gusting 5 5.6
2020-Jan-27 02:02 279 0 gusting 4 5.6
2020-Jan-27 01:46 317 0 gusting 5 6.1
2020-Jan-27 01:31 6.1
2020-Jan-27 01:16 6.1
2020-Jan-27 01:01 257 0 gusting 3 6.1
2020-Jan-27 00:47 320 0 gusting 4 6.1
2020-Jan-27 00:32 6.7
2020-Jan-27 00:16 323 6.7
2020-Jan-27 00:01 297 0 gusting 2 6.7